Location: Gro�wechsungen
(51.4926°N, 10.6901°E)
Time: 01:22:38
(UTC+00:00)

CZ-2C R/B - Pass Details

Date: 18 September 2020
Orbit: 704 x 907 km, 98.1° (Epoch: 23 October)

Event Time Altitude Azimuth Distance (km) Brightness Sun altitude
Rises 17:57:20 0° 163° (SSE) 3,258 6.0 -6.0°
Reaches altitude 10° 17:59:35 10° 163° (SSE) 2,363 5.3 -6.3°
Maximum altitude 18:04:51 89° 79° (E) 837 3.2 -7.1°
Drops below altitude 10° 18:10:27 10° 346° (NNW) 2,513 6.0 -8.0°
Sets 18:12:54 0° 346° (NNW) 3,480 6.8 -8.4°
